[[{"header":{"parameterUnit":"m.s-1","parameterCategory":1,"la1":30.2991,"la2":30.254,"lo1":-89.0895,"lo2":-89.0444,"dy":0.0017,"dx":0.0017,"nx":28,"ny":28,"refTime":"2023-09-03T21:00:00:Z","depth":0,"parameterNumber":2,"parameterNumberName":"U-component_of_WINDS"},"data":[0,0,0,0,0,0,0,0,0,0,0,0,0,0,0,0,0,0,0,0,0,0,0,0,0,0,0,0,0,0,0,0,0,0,0,0,0,0,0,0,0,0,0,0,0,0,0,0,0,0,0,0,0,0,0,0,0,0,-3.5244,-3.5245,0,-3.5278,-3.5278,-3.5278,-3.5214,-3.5212,-3.521,-3.5208,-3.5245,-3.5248,-3.5251,0,0,0,0,0,0,0,0,0,0,0,0,0,-3.5131,-3.5133,-3.5244,-3.5245,-3.5245,-3.5278,-3.5278,-3.5278,-3.5215,-3.5212,-3.521,-3.5207,-3.5244,-3.5248,-3.5251,0,0,0,0,0,0,0,0,0,0,0,0,0,-3.5174,-3.5134,-3.5244,-3.5217,-3.5215,-3.5277,-3.5278,-3.5279,-3.5215,-3.5212,-3.5209,-3.5206,-3.5243,-3.5247,-3.5252,-3.5343,0,0,-3.5265,-3.5267,0,0,0,0,0,0,0,0,-3.5171,-3.5178,-3.5221,-3.5219,-3.5217,-3.5239,-3.5251,-3.53,-3.5216,-3.5215,-3.5208,-3.5204,-3.5246,-3.525,-3.5263,-3.5345,-3.5346,-3.5266,-3.5268,-3.527,-3.5272,0,0,0,0,0,0,0,-3.5168,-3.5176,-3.5257,-3.5221,-3.5219,-3.5205,-3.5208,-3.526,-3.5248,-3.5215,-3.5211,-3.5215,-3.5244,-3.5259,-3.5264,-3.5347,-3.5266,-3.527,-3.5272,-3.5274,-3.5508,-3.5512,0,0,0,0,0,0,-3.5168,-3.5174,-3.5256,-3.5258,-3.5186,-3.521,-3.5213,-3.5235,-3.5247,-3.5246,-3.5218,-3.5212,-3.5253,-3.5258,-3.5265,-3.5373,-3.527,-3.5275,-3.5277,-3.5505,-3.5509,-3.5513,0,0,0,0,0,0,-3.5166,-3.5176,-3.5255,-3.5215,-3.5224,-3.5215,-3.5241,-3.5237,-3.5252,-3.5249,-3.5247,-3.5235,-3.5251,-3.5258,-3.5324,-3.5373,-3.5277,-3.5281,-3.5501,-3.5506,-3.5511,-3.559,0,0,0,0,0,0,-3.5163,-3.5176,-3.5208,-3.5216,-3.5226,-3.5313,-3.5244,-3.524,-3.5259,-3.5252,-3.5265,-3.5264,-3.5249,-3.5318,-3.5329,-3.5378,-3.5284,-3.5496,-3.5503,-3.5509,-3.5583,-3.5598,-3.561,0,0,0,0,0,-3.5159,-3.5229,-3.521,-3.5221,-3.5267,-3.5315,-3.5321,-3.5302,-3.5263,-3.5297,-3.5297,-3.5263,-3.5367,-3.5325,-3.5337,-3.5388,-3.5493,-3.5501,-3.5509,-3.5577,-3.5595,-3.561,0,0,0,0,0,0,-3.5227,-3.523,-3.5209,-3.5283,-3.53,-3.5305,-3.5346,-3.5321,-3.5349,-3.5341,-3.5317,-3.532,-3.5392,-3.5397,-3.535,-3.5479,-3.5424,-3.5434,-3.5472,-3.5489,-3.5502,-3.5498,-3.5288,0,0,0,0,0,-3.5251,-3.5289,-3.529,-3.5356,-3.5365,-3.5355,-3.5375,-3.5359,-3.5375,-3.5382,-3.5386,-3.5404,-3.5441,-3.5465,-3.5499,-3.5585,-3.5588,-3.5626,-3.564,-3.5651,-3.566,-3.5708,-3.5725,-3.5539,-3.5539,-3.5539,0,0,-3.5301,-3.5307,-3.5332,-3.537,-3.538,-3.5422,-3.5361,-3.5406,-3.5438,-3.5389,-3.5451,-3.5456,-3.5475,-3.5552,-3.5586,-3.5558,-3.5713,-3.5661,-3.567,-3.5673,-3.5718,-3.5736,-3.5751,-3.5545,-3.5544,-3.5543,0,0,-3.5411,-3.542,-3.5476,-3.5489,-3.5506,-3.55,-3.5514,-3.5524,-3.5524,-3.5587,-3.5552,-3.559,-3.5653,-3.5669,-3.5685,-3.5808,-3.5779,-3.582,-3.5889,-3.5936,-3.5951,-3.5964,-3.6008,-3.6024,-3.5829,-3.5829,-3.583,0,-3.547,-3.553,-3.5509,-3.5557,-3.5576,-3.5535,-3.5594,-3.5608,-3.5636,-3.565,-3.562,-3.57,-3.571,-3.5791,-3.5821,-3.5836,-3.5853,-3.5816,-3.595,-3.5963,-3.5975,-3.6017,-3.6033,-3.5834,-3.5834,-3.5833,-3.5833,0,-3.5602,-3.5645,-3.5689,-3.5716,-3.5741,-3.5794,-3.5783,-3.5811,-3.5794,-3.5792,-3.5858,-3.5869,-3.5905,-3.5924,-3.5908,-3.6004,-3.5987,-3.5954,-3.5898,-3.5998,-3.6037,-3.6052,-3.5841,-3.5839,-3.5838,-3.5837,0,0,-3.5752,-3.5771,-3.5787,-3.5801,-3.5819,-3.5852,-3.5906,-3.5941,-3.5966,-3.5989,-3.6034,-3.6091,-3.6061,-3.608,-3.6066,-3.6108,-3.6206,-3.607,-3.607,-3.6095,-3.6314,-3.6338,-3.6357,-3.6188,-3.6191,-3.6194,-3.6313,0,-3.5862,-3.5952,-3.5937,-3.6025,-3.6065,-3.603,-3.6077,-3.6095,-3.6096,-3.6131,-3.6133,-3.6174,-3.6131,-3.6143,-3.6183,-3.6185,-3.6249,-3.6177,-3.6231,-3.6233,-3.6225,-3.6377,-3.6401,-3.6512,-3.6328,-3.633,-3.6332,0,-3.6,-3.6028,-3.612,-3.6136,-3.6152,-3.6194,-3.6227,-3.6261,-3.6282,-3.628,-3.6304,-3.6284,-3.634,-3.6285,-3.6364,-3.6315,-3.6337,-3.6342,-3.6346,-3.6349,-3.6287,-3.6383,-3.6547,-3.6564,-3.6356,-3.6354,-3.6352,0,-3.6101,-3.6162,-3.6225,-3.6238,-3.6257,-3.6288,-3.6298,-3.6316,-3.6339,-3.6369,-3.6384,-3.6421,-3.6441,-3.6471,-3.6463,-3.6423,-3.6544,-3.6488,-3.6544,-3.6545,-3.6569,-3.6567,-3.6738,-3.6586,-3.6585,-3.6585,-3.6585,0,-3.6224,-3.6281,-3.6271,-3.6309,-3.6375,-3.6359,-3.6424,-3.643,-3.6447,-3.6488,-3.6462,-3.6501,-3.6488,-3.6528,-3.6523,-3.6589,-3.6599,-3.6599,-3.6597,-3.6601,-3.6601,-3.6613,-3.6605,-3.659,-3.6589,-3.6588,-3.6587,0,-3.6345,-3.634,-3.6407,-3.6421,-3.6426,-3.6473,-3.6486,-3.6524,-3.6524,-3.6577,-3.6589,-3.659,-3.6636,-3.6631,-3.6683,-3.6679,-3.6762,-3.6751,-3.6754,-3.6751,-3.6808,-3.6802,-3.6992,-3.7016,-3.6849,-3.6851,-3.6852,0,-3.6422,-3.6466,-3.6486,-3.6511,-3.6523,-3.6564,-3.6588,-3.6577,-3.6603,-3.6633,-3.6668,-3.6712,-3.6745,-3.6822,-3.6828,-3.6868,-3.6858,-3.6922,-3.6863,-3.6867,-3.6858,-3.6855,-3.686,-3.6932,-3.6934,-3.6935,-3.6937,0,-3.6561,-3.6557,-3.6592,-3.6628,-3.6658,-3.6686,-3.6711,-3.6734,-3.6725,-3.6757,-3.6803,-3.683,-3.6884,-3.6928,-3.6968,-3.698,-3.6958,-3.6956,-3.6971,-3.6974,-3.6974,-3.6975,-3.6784,-3.695,-3.6949,-3.6948,-3.6947,-3.6947,-3.6662,-3.67,-3.6721,-3.6762,-3.678,-3.6805,-3.6842,-3.6848,-3.6886,-3.6928,-3.692,-3.6973,-3.6998,-3.7048,-3.7065,-3.7107,-3.7084,-3.7106,-3.7112,-3.7117,-3.7123,-3.6969,-3.7115,-3.7114,-3.7114,-3.7114,-3.7113,0,-3.6799,-3.6811,-3.685,-3.6886,-3.692,-3.6897,-3.6924,-3.6954,-3.7001,-3.7025,-3.706,-3.7115,-3.7159,-3.7171,-3.7214,-3.7246,-3.7238,-3.7258,-3.7255,-3.7258,-3.7141,-3.7124,-3.7265,-3.7265,-3.7265,-3.7265,-3.7265,-3.7265,-3.6874,-3.6938,-3.6937,-3.7011,-3.7024,-3.7075,-3.7093,-3.7117,-3.7136,-3.7199,-3.7235,-3.7243,-3.7263,-3.7308,-3.7349,-3.7351,-3.7368,-3.7393,-3.7392,-3.7282,-3.7266,-3.7252,-3.7235,-3.7397,-3.7397,-3.7505,-3.7506,-3.7506]},{"header":{"parameterUnit":"m.s-1","parameterCategory":1,"la1":30.2991,"la2":30.254,"lo1":-89.0895,"lo2":-89.0444,"dy":0.0017,"dx":0.0017,"nx":28,"ny":28,"refTime":"2023-09-03T21:00:00:Z","depth":0,"parameterNumber":3,"parameterNumberName":"V-component_of_WINDS"},"data":[0,0,0,0,0,0,0,0,0,0,0,0,0,0,0,0,0,0,0,0,0,0,0,0,0,0,0,0,0,0,0,0,0,0,0,0,0,0,0,0,0,0,0,0,0,0,0,0,0,0,0,0,0,0,0,0,0,0,2.312,2.312,0,2.3106,2.3106,2.3106,2.3168,2.317,2.3172,2.3174,2.3154,2.3151,2.3149,0,0,0,0,0,0,0,0,0,0,0,0,0,2.3196,2.3194,2.312,2.312,2.312,2.3106,2.3106,2.3106,2.3168,2.317,2.3173,2.3175,2.3154,2.3152,2.3149,0,0,0,0,0,0,0,0,0,0,0,0,0,2.317,2.3193,2.312,2.3149,2.3152,2.3106,2.3106,2.3106,2.3168,2.317,2.3173,2.3176,2.3155,2.3152,2.3149,2.3073,0,0,2.3138,2.3137,0,0,0,0,0,0,0,0,2.3172,2.3167,2.3145,2.3147,2.315,2.3142,2.3126,2.3095,2.3167,2.3161,2.3174,2.3177,2.3147,2.3145,2.3136,2.3072,2.3071,2.3138,2.3136,2.3135,2.3134,0,0,0,0,0,0,0,2.3173,2.3168,2.3115,2.3145,2.3148,2.3162,2.3161,2.312,2.3139,2.3162,2.3167,2.3164,2.3149,2.3139,2.3136,2.3071,2.3138,2.3135,2.3133,2.3132,2.2944,2.2942,0,0,0,0,0,0,2.3172,2.3169,2.3115,2.3114,2.3168,2.3158,2.3157,2.3142,2.3139,2.3142,2.3162,2.3167,2.3143,2.314,2.3135,2.3047,2.3135,2.3131,2.313,2.2947,2.2944,2.2941,0,0,0,0,0,0,2.3173,2.3167,2.3116,2.3143,2.3138,2.3154,2.3136,2.314,2.313,2.314,2.3143,2.3149,2.3145,2.314,2.3089,2.3047,2.313,2.3127,2.2951,2.2946,2.2942,2.2868,0,0,0,0,0,0,2.3175,2.3167,2.3139,2.3142,2.3136,2.307,2.3133,2.3138,2.3125,2.3132,2.3128,2.313,2.3147,2.3093,2.3085,2.3044,2.3124,2.2955,2.2949,2.2944,2.2875,2.2862,2.2851,0,0,0,0,0,2.3178,2.3117,2.3137,2.313,2.3102,2.3067,2.3064,2.3087,2.3121,2.3093,2.3099,2.313,2.3053,2.3087,2.3079,2.3036,2.2957,2.295,2.2944,2.288,2.2864,2.2851,0,0,0,0,0,0,2.3106,2.3118,2.314,2.3079,2.3072,2.3078,2.3043,2.307,2.3051,2.3058,2.3085,2.3084,2.3027,2.3027,2.3065,2.2963,2.3011,2.3002,2.2965,2.295,2.2939,2.294,2.3121,0,0,0,0,0,2.3084,2.3056,2.3068,2.3012,2.3008,2.3026,2.3012,2.3031,2.3023,2.302,2.3023,2.3013,2.2987,2.2969,2.2945,2.2875,2.2875,2.2842,2.283,2.282,2.2812,2.2775,2.276,2.2919,2.2919,2.2919,0,0,2.3036,2.3039,2.302,2.2998,2.2995,2.2965,2.3023,2.2988,2.2966,2.3014,2.2966,2.2968,2.2959,2.2898,2.2871,2.2896,2.2768,2.2812,2.2804,2.2801,2.2767,2.2752,2.2738,2.2914,2.2915,2.2916,0,0,2.2933,2.2933,2.2888,2.2884,2.288,2.2892,2.2881,2.2884,2.2887,2.284,2.2876,2.2849,2.2804,2.2796,2.2786,2.2683,2.2711,2.2675,2.2613,2.2577,2.2564,2.2554,2.2516,2.2503,2.2667,2.2667,2.2667,0,2.2874,2.2832,2.2861,2.2824,2.2814,2.2859,2.2812,2.2807,2.2793,2.2784,2.2813,2.2757,2.2754,2.2693,2.2668,2.2659,2.2646,2.2675,2.2564,2.2554,2.2544,2.2509,2.2495,2.2662,2.2663,2.2663,2.2664,0,2.2759,2.2729,2.2693,2.2682,2.2667,2.2625,2.2647,2.2628,2.2649,2.2658,2.2609,2.2608,2.2586,2.2573,2.2591,2.2513,2.2529,2.256,2.2609,2.2524,2.2491,2.2478,2.2656,2.2658,2.2659,2.266,0,0,2.2609,2.2617,2.2603,2.2598,2.2598,2.2574,2.2535,2.2515,2.2498,2.2488,2.2455,2.2417,2.2446,2.2435,2.2453,2.2422,2.234,2.2457,2.2457,2.2435,2.2254,2.223,2.2214,2.2359,2.2357,2.2355,2.2255,0,2.2509,2.2444,2.2469,2.2401,2.2374,2.2418,2.2383,2.2378,2.2386,2.2363,2.2371,2.2344,2.2385,2.2379,2.235,2.2356,2.2304,2.2364,2.2327,2.2325,2.2327,2.2197,2.2171,2.2077,2.2242,2.224,2.2239,0,2.2383,2.237,2.23,2.2305,2.2295,2.2263,2.2248,2.2226,2.2221,2.2229,2.2218,2.2243,2.2204,2.2254,2.2199,2.224,2.2226,2.2227,2.2224,2.2221,2.2276,2.2189,2.2047,2.2033,2.2219,2.2221,2.2222,0,2.228,2.2246,2.22,2.2195,2.2199,2.2176,2.2177,2.2175,2.2162,2.2148,2.214,2.212,2.2109,2.2093,2.2112,2.2147,2.2055,2.2107,2.2059,2.2059,2.2037,2.2037,2.189,2.2029,2.203,2.203,2.203,0,2.2165,2.212,2.2154,2.2125,2.2076,2.2106,2.2056,2.2061,2.206,2.2032,2.2068,2.2041,2.2069,2.2044,2.2059,2.2011,2.2006,2.201,2.2014,2.2007,2.2006,2.1997,2.2004,2.2026,2.2027,2.2028,2.2028,0,2.2042,2.2062,2.2015,2.2024,2.2026,2.1989,2.1996,2.197,2.1982,2.1946,2.1939,2.1957,2.1929,2.1948,2.192,2.193,2.1867,2.1881,2.1869,2.1873,2.1824,2.1828,2.1665,2.1645,2.1798,2.1797,2.1795,0,2.1966,2.1933,2.194,2.1925,2.1924,2.1899,2.1887,2.1915,2.19,2.1893,2.1867,2.1844,2.1826,2.178,2.1789,2.1768,2.1781,2.1726,2.1778,2.1771,2.178,2.1781,2.1778,2.1714,2.1712,2.1711,2.171,0,2.183,2.1843,2.1825,2.181,2.1794,2.1784,2.1775,2.1761,2.1789,2.1771,2.1745,2.1731,2.1704,2.168,2.1663,2.1662,2.169,2.1694,2.1682,2.1672,2.1667,2.1669,2.184,2.1697,2.1698,2.1699,2.17,2.17,2.1728,2.1701,2.1702,2.1681,2.1678,2.167,2.1646,2.1656,2.1635,2.1617,2.1634,2.1603,2.1599,2.158,2.1575,2.155,2.1573,2.1555,2.155,2.1545,2.1539,2.1672,2.1547,2.1548,2.1548,2.1548,2.1549,0,2.1594,2.1598,2.1578,2.1566,2.1549,2.158,2.1573,2.1556,2.1529,2.1524,2.1507,2.1477,2.1454,2.1463,2.1442,2.142,2.1433,2.1414,2.1415,2.1414,2.152,2.1532,2.1404,2.1404,2.1404,2.1404,2.1404,2.1404,2.1522,2.1478,2.1491,2.1446,2.145,2.1421,2.1414,2.1406,2.1403,2.1369,2.1351,2.1357,2.1358,2.1338,2.1318,2.1321,2.1311,2.1287,2.1295,2.1393,2.1407,2.142,2.1432,2.1285,2.1285,2.1191,2.1191,2.119]}]]